EDT,Max TemperatureF,Mean TemperatureF,Min TemperatureF,Max Dew PointF,MeanDew PointF,Min DewpointF,Max Humidity, Mean Humidity, Min Humidity, Max Sea Level PressureIn, Mean Sea Level PressureIn, Min Sea Level PressureIn, Max VisibilityMiles, Mean VisibilityMiles, Min VisibilityMiles, Max Wind SpeedMPH, Mean Wind SpeedMPH, Max Gust SpeedMPH,PrecipitationIn, CloudCover, Events, WindDirDegrees
2013-9-1,75,70,66,70,67,65,95,89,81,30.01,29.98,29.94,10,8,0,8,2,,0.12,6,Fog-Rain-Thunderstorm,207
2013-9-2,81,74,68,70,68,66,95,85,64,30.04,29.98,29.93,10,6,0,10,3,,0.01,6,Fog-Rain-Thunderstorm,243
2013-9-3,77,70,62,68,64,58,95,80,53,30.12,30.02,29.93,10,8,0,13,4,18,0.01,5,Fog-Rain-Thunderstorm,290
2013-9-4,78,67,56,63,57,49,96,74,39,30.23,30.17,30.12,10,7,0,8,1,,0.00,2,Fog,308
2013-9-5,78,66,55,62,59,54,95,76,45,30.27,30.23,30.20,10,9,0,7,2,,0.00,1,Fog,347
2013-9-6,79,70,61,64,59,55,94,72,45,30.28,30.23,30.19,10,10,4,6,1,,0.00,1,,356
2013-9-7,79,69,59,62,59,56,93,71,47,30.20,30.15,30.10,10,10,10,8,2,,0.00,1,,294
2013-9-8,79,71,63,68,64,61,91,77,54,30.13,30.10,30.07,10,10,10,5,1,,0.00,3,,274
2013-9-9,84,74,65,68,65,63,94,74,51,30.24,30.18,30.13,10,8,0,7,2,,0.00,2,Fog,153
2013-9-10,85,76,68,68,65,63,86,67,50,30.34,30.29,30.24,10,10,10,6,3,,0.00,2,,218
2013-9-11,81,75,69,71,68,66,93,82,66,30.33,30.28,30.20,10,9,1,7,1,,0.40,4,Rain-Thunderstorm,242
2013-9-12,82,74,67,70,67,63,95,83,55,30.20,30.09,29.99,10,7,0,17,3,26,0.00,5,Fog-Rain-Thunderstorm,251
2013-9-13,70,62,54,64,55,47,94,73,45,30.06,29.98,29.94,10,9,2,14,7,22,0.00,6,,312
2013-9-14,69,60,50,51,48,42,92,68,39,30.17,30.11,30.05,10,10,10,8,3,,0.00,2,,39
2013-9-15,75,66,56,57,53,48,83,65,44,30.26,30.21,30.17,10,10,10,10,3,,0.00,1,,196
2013-9-16,69,63,57,61,58,55,92,80,67,30.30,30.23,30.19,10,10,3,8,3,,0.00,5,,321
2013-9-17,71,62,54,56,52,47,90,71,55,30.33,30.30,30.27,10,10,10,15,7,22,0.00,1,,117
2013-9-18,70,63,56,61,56,51,94,81,60,30.29,30.26,30.21,10,8,1,10,5,,0.02,6,Rain,180
2013-9-19,70,66,62,67,63,60,95,93,89,30.25,30.20,30.16,7,3,0,7,2,,1.09,7,Fog-Rain,198
2013-9-20,79,72,64,67,64,63,94,81,59,30.17,30.09,29.99,10,8,0,9,3,,0.06,4,Fog-Rain,217
2013-9-21,70,64,59,65,61,57,94,87,76,29.98,29.87,29.83,10,8,0,10,4,18,0.49,5,Fog-Rain,198
2013-9-22,67,61,55,57,53,50,95,80,54,30.03,29.94,29.87,10,8,0,8,3,,0.00,6,Fog,340
2013-9-23,71,60,48,55,52,47,95,77,49,30.10,30.07,30.01,10,8,0,10,3,,0.00,2,Fog,8
2013-9-24,75,64,53,59,55,51,92,75,48,30.12,30.06,29.99,10,10,10,6,1,,0.00,2,,38
2013-9-25,69,64,60,61,58,56,93,81,70,29.99,29.95,29.92,10,10,7,6,0,,0.00,6,Rain,101
2013-9-26,73,64,56,59,56,50,96,78,45,30.13,30.04,29.96,10,6,0,7,3,,0.05,4,Fog-Rain,35
2013-9-27,75,64,53,58,54,51,95,73,44,30.23,30.18,30.12,10,9,0,7,1,16,0.00,2,Fog,9
2013-9-28,72,64,55,56,53,51,88,70,48,30.30,30.23,30.20,10,10,10,10,5,17,0.00,3,,132
2013-9-29,69,62,54,60,54,49,92,77,65,30.20,30.15,30.08,10,10,7,10,4,18,0.00,5,,157
2013-9-30,71,64,56,60,57,54,94,82,62,30.14,30.11,30.07,10,9,0,6,1,,0.00,6,Fog,207